Location: Springfield
(37.2150°N, 93.2980°W)
Time: 21:38:04
(UTC-05:00)

NOSS 3-4 (A) - Pass Details

Date: 19 April 2018
Orbit: 943 x 1269 km, 63.4° (Epoch: 24 April)

Event Time Altitude Azimuth Distance (km) Brightness Sun altitude
Rises 23:25:39 0° 324° (NW) 3,902 7.7 -35.2°
Reaches altitude 10° 23:28:15 10° 322° (NW) 2,988 6.8 -35.5°
Enters shadow 23:34:10 59° 288° (WNW) 1,333 4.2 -36.1°
